This demonstration page uses our WeatherBlox Daily Observations layout. Learn more.

Left ArrowRight Arrow

34.74481, -87.66753

Hourly Observations for August 26, 2015

Temp ( °F °C ) Dew Point ( °F °C ) Humidity (%) Winds ( mph kmh ) Pressure ( in mb ) Visibility ( mi km ) Precip ( " mm )
12:53 am 00:53 Clear 65 18.3 55 12.8 70 70 N 3 6 30.06 1018 10 16 0.00 0.00
1:53 am 01:53 Clear 62 16.7 55 12.8 78 78 N 3 6 30.06 1018 10 16 0.00 0.00
2:53 am 02:53 Clear 61 16.1 55 12.8 81 81 N 3 6 30.05 1018 10 16 0.00 0.00
3:53 am 03:53 Clear 61 16.1 55 12.8 81 81 Calm 30.04 1017 10 16 0.00 0.00
4:53 am 04:53 Clear 61 16.1 56 13.3 84 84 Calm 30.05 1018 10 16 0.00 0.00
5:53 am 05:53 Clear 57 13.9 53 11.7 87 87 Calm 30.06 1018 10 16 0.00 0.00
6:53 am 06:53 Sunny 59 15 54 12.2 83 83 Calm 30.09 1019 10 16 0.00 0.00
7:53 am 07:53 Sunny 66 18.9 57 13.9 73 73 N 5 7 30.10 1019 10 16 0.00 0.00
8:53 am 08:53 Sunny 70 21.1 56 13.3 61 61 N 7 11 30.11 1020 10 16 0.00 0.00
9:53 am 09:53 Sunny 72 22.2 56 13.3 57 57 N 9 15 30.12 1020 10 16 0.00 0.00
10:53 am 10:53 Sunny 74 23.3 55 12.8 52 52 ENE 8 13 30.11 1020 10 16 0.00 0.00
11:53 am 11:53 Sunny 77 25 58 14.4 52 52 N 6 9 30.10 1019 10 16 0.00 0.00
12:53 pm 12:53 Sunny 78 25.6 56 13.3 47 47 N 7 11 30.09 1019 10 16 0.00 0.00
1:53 pm 13:53 Sunny 80 26.7 58 14.4 47 47 N 10 17 30.07 1018 10 16 0.00 0.00
2:53 pm 14:53 Sunny 80 26.7 58 14.4 47 47 VRB 6 9 30.06 1018 10 16 0.00 0.00
3:53 pm 15:53 Sunny 80 26.7 57 13.9 45 45 N 7 11 30.05 1018 10 16 0.00 0.00
4:53 pm 16:53 Sunny 81 27.2 58 14.4 45 45 VRB 6 9 30.04 1017 10 16 0.00 0.00
5:53 pm 17:53 Sunny 79 26.1 58 14.4 49 49 N 6 9 30.04 1017 10 16 0.00 0.00
6:53 pm 18:53 Mostly Sunny 75 23.9 59 15 58 58 NNW 6 9 30.04 1017 10 16 0.00 0.00
7:53 pm 19:53 Mostly Clear 72 22.2 59 15 64 64 N 5 7 30.04 1017 10 16 0.00 0.00
8:53 pm 20:53 Clear 70 21.1 58 14.4 66 66 N 5 7 30.06 1018 10 16 0.00 0.00
9:53 pm 21:53 Clear 69 20.6 58 14.4 68 68 N 3 6 30.07 1018 10 16 0.00 0.00
10:53 pm 22:53 Clear 67 19.4 58 14.4 73 73 NNE 3 6 30.07 1018 10 16 0.00 0.00
11:53 pm 23:53 Clear 67 19.4 58 14.4 73 73 VRB 3 6 30.06 1018 10 16 0.00 0.00

Powered by AerisWeather